OBJECT A, 60088

Orbit data source: Space-Track

You're viewing an Uncataloged Satellite

Recently launched and/or uncataloged satellites may have evolving metadata. Metadata may include but not limited to: Owner, Maufacturer, Bus, Motor, and Mission.

OBJECT A, 60088 is a Chinese satellite in LEO that was launched on Sat, 22 Jun 2024 UTC via a CHANG ZHENG 2C launch vehicle from the Xichang Space Center, China (XSC). Unknown objects in Earth's orbit typically refer to objects detected orbiting the Earth but have not yet been identified or cataloged. These objects could be anything from previously untracked satellites, spent rocket stages, debris from satellite collisions, or even natural meteoroids temporarily captured by Earth's gravity.

Loading next visibility...
Identifier
60088, 2024-116A
Orbit
LEO
Country
Flag of CNCN / PRC
Related business
Manufacturer
IMI/CAS
Mission
Operational Civil Astronomy
Bus & Motor
SVOM, Unknown motor
Mass
930 kg wet, 930 kg dry
Launch date (UTC)
2024-06-22 (2 years ago)
Launch vehicle
CHANG ZHENG 2C
Launch site
Xichang Space Center, China (XSC)
Object type
Unknown
Shape & HBR
Box + 2 Pan, 5.0 m
Radar Cross Section
5.372 m², Medium (>0.1 m² and < 1m²)

Expand to show TLE details & history
Last TLE update: 9 hours ago

TLE from 9 hours ago
0 OBJECT A
1 60088U 24116A   26171.48927300  .00001284  00000-0  13280-3 0  9998
2 60088  28.9953  90.1253 0004205  99.1341 260.9729 14.84908418108155
Epoch: 2026-06-20T11:44Z
TLE epoch observation values (Epoch: 2026-06-20T11:44:33.187Z)
Latitude
0.00001°
Longitude
5.28388°
Altitude
612.672 km
Speed
7.555 km/s
True Right ascension
06h 00m 30s
True Declination
0° 00' 00"
Sunlit
Object was in daylight at epoch
Visualization orbit readout
Latitude
Unknown
Longitude
Unknown
Altitude
Unknown
Speed
Unknown
Apparent Right ascension
Unknown
Apparent Declination
Unknown
Sunlit
N/A
Visualization observer readout
Local Sidereal Time
07:17:21
Azimuth
Unknown
Elevation
Unknown
Doppler factor
Unknown
Orbital elements
Apogee altitude
620.9 km
Perigee altitude
615.016 km
Semi-major axis
6,996.095 km
Eccentricity
0.00042
Inclination
28.9953°
RAAN
90.1253°
Arg. of periapsis
99.1341°
True anomaly
260.92531°
Mean anomaly
260.9729°
Eccentric anomaly
260.94911°
Mean motion
3.70902 °/min
Orbital period
97.06 mins
BSTAR
0.0001328
Loading maneuver chart data...
Computing Atmospheric mass density...
Loading historical data...
Loading historical data...
Loading historical data...
Loading historical data...
Loading historical data...
Loading historical data...
Loading historical data...
Other satellites on launch #116 in the year 2024 (2024-06-22 UTC)

Documentation

Showing up to 5 results
|